Погода Александровский Завод

Погода Александровский Завод : погода сейчас, прогноз погоды и архив. Всё, что Вы хотите узнать о погоде Александровский Завод!

Хотите узнать прогноз погоды Александровский Завод? Тогда Вам сюда: Погода Александровский Завод

Поиск расширенной информации на нашем сайте:

Другие новости

Новости СМИ2

Главная страница сайта

Новости сайта

03.07.2017

Напоминаем, что на нашем специализированном сайте Метеоцентр.Азия вы можете получить высокодетализированные автоматические прогнозы погоды по пунктам России, СНГ и мира в авиационном формате (включающие направление и скорость ветра, видимость, явления погоды, количество и форму облачности, нижнюю и верхнюю границу облачности).

Рекомендуем: Смотрите информацию обивка вагонкой цена на нашем сайте.

Погода Александровский Завод - сегодня

Время (UTC), дата Ветер
(°,м/с) 
Видим.   Явления Облачность Т
(°С)
Тd
(°С)
f(%) Тe
(°С)
Pmin
(гПа)
dP
(гПа)
Po
(мм)
O2
(г/м3)
Тmin Tmax R s Состояние
почвы
12 22.09.17 210 (ЮЗ) 10 км  слаб. дождь  10/10 600 м 
[Ns]
+3.7 +2.3 91 +2  995.9  2.4  677  269    +8.4     
15 22.09.17 240 (ЮЗ) 20000 м  {дождь}  10/10 600 м 
[Ns]
+4.6 +2 83 +3  997  1.3  678  268           
18 22.09.17 240 (ЮЗ) 2{10}  20000 м  {дождь}  4/0 средняя 
[Ac lent]
+3.4 -0.1 78 +3  999  1.4  679  270           
21 22.09.17 230 (ЮЗ) 20000 м    4/0 средняя 
[Ac lent]
+2.1 -1 80 +1  1000.9  1.3  680  272           
00 23.09.17 260 (З) 20000 м    3/0 средняя 
[Ac lent]
+4.8 -0.7 68 +3  1001.7  1.5  681  270  +0.1    0.0    влажная 
03 23.09.17 280 (З) 20000 м    6/5 600 м верхняя 
[Cu med, cong|Ci fib]
+9.5 -1.6 46 +8  1001  0.8  682  266           
06 23.09.17 260 (З) 4{10}  20000 м    6/4 600 м верхняя 
[Cu med, cong|Ci fib]
+11.7 -4 33 +11  1000.7  0.3  682  264           
09 23.09.17 290 (З) 6{10}  20000 м    5/3 600 м верхняя 
[Cu hum|Ci fib]
+10.4 -5.1 33 +9  1002.2  683  265           
12 23.09.17 190 (Ю) 20000 м    3/0 верхняя 
[Ci fib]
-0.4 -4.8 72 -1  1008.1  1.9  684  277    +11.8       
15 23.09.17 210 (ЮЗ) 20000 м    ясно 
-3.3 -5.7 83 -3  1010  0.7  685  280           
18 23.09.17 220 (ЮЗ) 20000 м    ясно 
-4.5 -6 89 -4  1011.6  1.1  686  281           
21 23.09.17 200 (Ю) 20000 м    1/0 средняя 
[Ac lent]
-7.7 -9 90 -7  1014.3  1.2  687  285           
00 24.09.17 220 (ЮЗ) 20000 м    3/0 верхняя 
[Ci fib]
+0.5 -3.3 76 +1  1012.4  1.2  687  277  -8        влажная 
03 24.09.17 310 (СЗ) 7-11{11}  20000 м    3/3 600 м 
[Cu hum]
+8.2 -6.4 35 +6  1009.6  0.1  687  269           
06 24.09.17 330 (СЗ) 4{11}  20000 м    1/0 верхняя 
[Ci fib]
+10.9 -7.1 28 +10  1008.7  0.1  687  267           
09 24.09.17 350 (С) 20000 м    4/0 средняя, верхняя 
[Ac lent|Ci fib]
+8.9 -7.5 31 +9  1009.9  0.5  688  269           
12 24.09.17 210 (ЮЗ) 20000 м    3/0 средняя 
[Ac lent]
-1.3 -6.6 67 -2  1014.6  689  279    +11.5       
15 24.09.17 210 (ЮЗ) 20000 м    3/0 средняя 
[Ac lent]
+0.6 -4.8 67 +1  1013.7  -0.2  688  277           
18 24.09.17 200 (Ю) 20000 м    3/0 средняя 
[Ac lent]
-3.4 -5.5 85 -3  1013.5  -1.5  687  281           
21 24.09.17 020 (С) 20000 м    5/0 средняя 
[Ac lent]
-1.5 -4.3 81 -3  1009.4  -3.1  685  278           
00 25.09.17 160 (Ю) 5-11{11}  20000 м    8/0 верхняя 
[Ci fib]
+7.8 -3.3 45 +6  1002.2  -3.5  682  268  -4.3        влажная 
03 25.09.17 180 (Ю) 7-11{21}  20000 м    10/10 600 м 
[Ns]
+9.8 -1.9 44 +8  999  -2.2  681  265           
06 25.09.17 320 (СЗ) 4{11}  20000 м    8/8 600 м 
[Sc]
+12.2 +0.5 45 +12  998.3  0.1  681  262           
09 25.09.17 290 (З) 20000 м    4/4 600 м 
[Sc]
+9.9 +0.1 50 +9  999.2  0.1  681  265           
12 25.09.17 230 (ЮЗ) 2{15}  20000 м    9/9 600 м 
[Sc]
+4.9 +1.1 76 +5  1004.3  683  270    +12.5       
Время (UTC), дата Ветер
(°,м/с) 
Видим.   Явления Облачность Т
(°С)
Тd
(°С)
f(%) Тe
(°С)
Pmin
(гПа)
dP
(гПа)
Po
(мм)
O2
(г/м3)
Тmin Tmax R s Состояние
почвы

Для получения пояснительной информации подведите курсор к названию столбца.

ПОГОДА Александровский Завод - архив

Всё, что Вы хотите узнать о погоде Александровский Завод - удобно и подробно!

Выберите нужную дату (начиная с 1 января 2015* года) и нажмите кнопку "Найти".
Будут отображены архивные сводки погоды по пункту Александровский Завод, начиная с указанной даты.


Отображать данные в формате CSV (для использования в таблицах Excel)


Внимание! Наш архив погоды предназначен исключительно для личного некоммерческого использования в познавательных целях. Если Вам необходимы официальные справки о состоянии погоды (для производственных, юридических, коммерческих и т.п. целей), обращайтесь в органы Росгидромета.

*Примечание: данная дата относится к архиву по метеостанциям СССР (Россия, СНГ, Балтия).
Архив по метеостанциям Зарубежной Европы и Азии (кроме Китая) хранится 10 дней, по другим регионам земного шара (Китай, Африка, Америка, Австралия, Океания) - 1 день.

Александровский Завод - район местоположения метеостанции


Название, широта, долгота, высота метеостанции:
Александровский Завод 50.9°ш. 117.9°д. 807 м над ур. моря [Российская Федерация]

Дополнительная информация

В oтличие oт бoльшинства пoгoдных сайтoв мы публикуем пoдрoбную метеoинфoрмацию в детальнoм прoфессиoнальнoм фoрмате.

Характеристики температуры и влажнoсти вoздуха измеряются на высoте 2 м в тени вдали oт зданий и деревьев.
Скoрoсть ветра измеряется на высoте 10 м (на урoвне рoста челoвека скoрoсть ветра ниже в 1.5-2 раза). Если метеoстанция нахoдится в гoрoде или в лесу, тo скoрoсть ветра занижена на 2-4 м/с пo сравнению с oткрытым местoм. Скoрoсть ветра над акватoриями крупных рек и oзёр, а также на вершинах хoлмoв на 2-5 м/с выше, чем в oбычных услoвиях.
Атмoсфернoе давление в разных тoчках местнoсти мoжет значительнo oтличаться oт давления на метеoстанции, в зависимoсти oт услoвий рельефа (при пoдъёме на 10 м давление пoнижается примернo на 1 мм рт.ст.).